EW8702 Weather Reports


time (UTC)temp
C
wind
direction
speed
KPH
gust
KPH
rain 1hr
cm
rain 24hr
cm
rain mn
cm
humidity
%
barometer
mb
20260508213122 22 260 8.0 17.7 0.00 0.00 0.00 25 1015.6
20260508212122 22 209 9.7 24.1 0.00 0.00 0.00 26 1015.5
20260508211122 22 245 8.0 19.3 0.00 0.00 0.00 25 1015.7
20260508210122 22 217 8.0 20.9 0.00 0.00 0.00 25 1015.8
20260508205122 21 219 8.0 14.5 0.00 0.00 0.00 24 1015.9
20260508204122 21 205 11.3 20.9 0.00 0.00 0.00 28 1015.9
20260508203143 21 216 9.7 24.1 0.00 0.00 0.00 25 1015.9
20260508202122 21 207 12.9 20.9 0.00 0.00 0.00 26 1016.1
20260508201124 21 215 9.7 22.5 0.00 0.00 0.00 30 1016.1
20260508200122 21 214 9.7 19.3 0.00 0.00 0.00 26 1016.0
20260508195122 21 227 9.7 19.3 0.00 0.00 0.00 25 1016.0
20260508194122 21 246 9.7 17.7 0.00 0.00 0.00 30 1015.9
20260508193122 21 229 8.0 14.5 0.00 0.00 0.00 27 1016.0
20260508192143 21 210 6.4 17.7 0.00 0.00 0.00 31 1016.1
20260508191143 21 212 6.4 17.7 0.00 0.00 0.00 30 1016.3
20260508190143 21 238 8.0 14.5 0.00 0.00 0.00 33 1016.4
20260508185122 20 239 6.4 14.5 0.00 0.00 0.00 29 1016.4
20260508184143 20 240 8.0 14.5 0.00 0.00 0.00 32 1016.4
20260508183122 20 217 9.7 19.3 0.00 0.00 0.00 34 1016.6
20260508182122 20 227 8.0 17.7 0.00 0.00 0.00 31 1016.6
20260508181122 20 218 9.7 20.9 0.00 0.00 0.00 31 1016.6
20260508180122 20 226 8.0 16.1 0.00 0.00 0.00 32 1016.6
20260508175147 20 221 6.4 14.5 0.00 0.00 0.00 28 1016.8
20260508174122 20 214 8.0 17.7 0.00 0.00 0.00 30 1016.8
20260508173122 20 219 6.4 14.5 0.00 0.00 0.00 29 1016.8
20260508172122 20 300 1.6 6.4 0.00 0.00 0.00 45 1016.9
20260508171122 18 137 3.2 6.4 0.00 0.00 0.00 35 1016.9
20260508170122 18 130 1.6 4.8 0.00 0.00 0.00 42 1017.0
20260508165122 17 145 1.6 6.4 0.00 0.00 0.00 45 1017.1
20260508164122 16 152 1.6 4.8 0.00 0.00 0.00 45 1017.1
20260508163122 16 155 1.6 4.8 0.00 0.00 0.00 47 1017.1
20260508162122 15 149 3.2 4.8 0.00 0.00 0.00 47 1017.2
20260508161122 15 126 3.2 4.8 0.00 0.00 0.00 52 1017.1
20260508160122 14 121 1.6 4.8 0.00 0.00 0.00 52 1017.2
20260508155418 13 121 3.2 6.4 0.00 0.00 0.00 56 1017.3
20260508154228 12 130 3.2 8.0 0.00 0.00 0.00 56 1017.3
20260508153333 12 121 1.6 4.8 0.00 0.00 0.00 58 1017.2
20260508152122 10 122 1.6 6.4 0.00 0.00 0.00 65 1017.3
20260508151122 9 130 1.6 4.8 0.00 0.00 0.00 69 1017.3
20260508150122 8 126 0.0 3.2 0.00 0.00 0.00 71 1017.4
20260508145122 7 0 0.0 0.0 0.00 0.00 0.00 73 1017.4
20260508144122 7 0 0.0 0.0 0.00 0.00 0.00 73 1017.3
20260508143122 7 0 0.0 0.0 0.00 0.00 0.00 74 1017.4
20260508142122 6 0 0.0 0.0 0.00 0.00 0.00 75 1017.4
20260508141122 6 121 0.0 1.6 0.00 0.00 0.00 75 1017.3
20260508140123 6 119 0.0 1.6 0.00 0.00 0.00 76 1017.3
20260508135122 6 115 0.0 3.2 0.00 0.00 0.00 77 1017.3
20260508134122 5 0 0.0 1.6 0.00 0.00 0.00 77 1017.2
20260508133122 5 186 0.0 4.8 0.00 0.00 0.00 78 1017.1
20260508132122 4 0 0.0 0.0 0.00 0.00 0.00 77 1017.0
20260508131122 3 0 0.0 0.0 0.00 0.00 0.00 76 1016.9
20260508130122 3 289 0.0 1.6 0.00 0.00 0.00 75 1016.8
20260508125122 3 288 0.0 4.8 0.00 0.00 0.00 75 1016.7
20260508124122 4 0 0.0 0.0 0.00 0.00 0.00 74 1016.6
20260508123143 4 290 0.0 3.2 0.00 0.00 0.00 74 1016.6
20260508122122 4 290 0.0 1.6 0.00 0.00 0.00 74 1016.4
20260508121122 4 0 0.0 0.0 0.00 0.00 0.00 74 1016.4
20260508120122 5 0 0.0 0.0 0.00 0.00 0.00 74 1016.3
20260508115122 5 0 0.0 0.0 0.00 0.00 0.00 75 1016.2
20260508114122 5 0 0.0 0.0 0.00 0.00 0.00 75 1016.1
20260508113122 5 292 0.0 3.2 0.00 0.00 0.00 75 1016.1
20260508112143 4 296 0.0 4.8 0.00 0.00 0.00 74 1016.0
20260508111122 4 0 0.0 0.0 0.00 0.00 0.00 73 1015.9
20260508110122 5 0 0.0 0.0 0.00 0.00 0.00 72 1015.9
20260508105122 5 0 0.0 0.0 0.00 0.00 0.00 71 1015.8
20260508104122 5 0 0.0 0.0 0.00 0.00 0.00 72 1015.7
20260508103122 5 0 0.0 0.0 0.00 0.00 0.00 72 1015.7
20260508102122 5 0 0.0 0.0 0.00 0.00 0.00 72 1015.6
20260508101143 5 0 0.0 0.0 0.00 0.00 0.00 71 1015.6
20260508100122 5 0 0.0 0.0 0.00 0.00 0.00 70 1015.4
20260508095122 6 0 0.0 0.0 0.00 0.00 0.00 70 1015.5
20260508094143 6 0 0.0 0.0 0.00 0.00 0.00 70 1015.4
20260508093143 6 0 0.0 0.0 0.00 0.00 0.00 71 1015.5
20260508092143 6 0 0.0 0.0 0.00 0.00 0.00 72 1015.5
20260508091143 6 0 0.0 0.0 0.00 0.00 0.00 71 1015.5
20260508090122 6 278 0.0 3.2 0.00 0.00 0.00 68 1015.4
20260508085122 6 0 0.0 0.0 0.00 0.00 0.00 68 1015.3
20260508084122 6 277 0.0 1.6 0.00 0.00 0.00 67 1015.3
20260508083122 6 274 0.0 4.8 0.00 0.00 0.00 66 1015.5
20260508082143 7 0 0.0 1.6 0.00 0.00 0.00 64 1015.4
20260508081122 7 0 0.0 0.0 0.00 0.00 0.00 63 1015.4
20260508080122 7 274 0.0 4.8 0.00 0.00 0.00 63 1015.4
20260508075122 7 274 0.0 1.6 0.00 0.00 0.00 63 1015.4
20260508074123 7 0 0.0 0.0 0.00 0.00 0.00 63 1015.4
20260508073122 8 273 0.0 3.2 0.00 0.00 0.00 63 1015.3
20260508072122 8 0 0.0 0.0 0.00 0.00 0.00 62 1015.3
20260508071143 8 0 0.0 0.0 0.00 0.00 0.00 62 1015.3
20260508070122 8 0 0.0 0.0 0.00 0.00 0.00 61 1015.4
20260508065122 8 0 0.0 0.0 0.00 0.00 0.00 61 1015.2
20260508064122 9 0 0.0 0.0 0.00 0.00 0.00 60 1015.1
20260508063122 9 0 0.0 0.0 0.00 0.00 0.00 60 1015.1
20260508062122 10 0 0.0 0.0 0.00 0.00 0.00 58 1015.0
20260508061143 10 0 0.0 0.0 0.00 0.00 0.00 57 1014.9
20260508055122 11 0 0.0 0.0 0.00 0.00 0.00 56 1014.9
20260508054122 11 0 0.0 0.0 0.00 0.00 0.00 55 1014.9
20260508053122 11 0 0.0 0.0 0.00 0.00 0.00 53 1014.9
20260508052122 11 0 0.0 1.6 0.00 0.00 0.00 52 1014.9
20260508051143 11 0 0.0 1.6 0.00 0.00 0.00 51 1014.9
20260508050122 12 288 1.6 6.4 0.00 0.00 0.00 51 1014.9
20260508045122 12 305 0.0 4.8 0.00 0.00 0.00 50 1014.8
20260508044143 11 317 1.6 8.0 0.00 0.00 0.00 51 1014.7
20260508043122 12 296 0.0 3.2 0.00 0.00 0.00 51 1014.7
20260508042143 12 295 1.6 4.8 0.00 0.00 0.00 51 1014.6
20260508041122 12 282 1.6 6.4 0.00 0.00 0.00 52 1014.5
20260508040122 12 283 1.6 6.4 0.00 0.00 0.00 51 1014.3
20260508035122 12 275 0.0 6.4 0.00 0.00 0.00 51 1014.2
20260508034122 13 310 3.2 8.0 0.00 0.00 0.00 48 1014.0
20260508033122 13 265 4.8 9.7 0.00 0.00 0.00 48 1014.0
20260508032122 15 257 1.6 6.4 0.00 0.00 0.00 45 1013.9
20260508031144 15 294 1.6 4.8 0.00 0.00 0.00 41 1013.6
20260508030122 16 324 1.6 4.8 0.00 0.00 0.00 41 1013.5
20260508025122 16 331 1.6 3.2 0.00 0.00 0.00 37 1013.4
20260508024143 17 319 1.6 6.4 0.00 0.00 0.00 37 1013.4
20260508023122 17 247 0.0 6.4 0.00 0.00 0.00 41 1013.3
20260508022143 18 211 1.6 4.8 0.00 0.00 0.00 33 1013.3
20260508021122 18 256 3.2 9.7 0.00 0.00 0.00 34 1013.3
20260508020143 18 277 1.6 6.4 0.00 0.00 0.00 31 1013.2
20260508015122 19 224 3.2 6.4 0.00 0.00 0.00 30 1013.2
20260508014122 20 204 1.6 6.4 0.00 0.00 0.00 29 1013.2
20260508013122 20 229 3.2 11.3 0.00 0.00 0.00 31 1013.2
20260508012122 20 246 4.8 8.0 0.00 0.00 0.00 29 1013.2
20260508011143 20 240 4.8 14.5 0.00 0.00 0.00 29 1013.2
20260508010122 20 251 6.4 16.1 0.00 0.00 0.00 28 1013.2
20260508005122 20 268 4.8 16.1 0.00 0.00 0.00 29 1013.2
20260508004122 20 268 9.7 20.9 0.00 0.00 0.00 28 1013.3
20260508003122 20 261 4.8 17.7 0.00 0.00 0.00 28 1013.3
20260508002122 20 253 8.0 16.1 0.00 0.00 0.00 32 1013.3
20260508001122 20 190 4.8 9.7 0.00 0.00 0.00 29 1013.3
20260508000122 20 253 3.2 6.4 0.00 0.00 0.00 30 1013.6
20260507235122 20 257 6.4 14.5 0.00 0.00 0.00 31 1013.7
20260507234122 20 256 6.4 16.1 0.00 0.00 0.00 36 1013.7
20260507233122 20 269 8.0 17.7 0.00 0.00 0.00 30 1013.9
20260507232122 20 259 8.0 14.5 0.00 0.00 0.00 30 1014.1
20260507231122 20 258 8.0 19.3 0.00 0.00 0.00 30 1014.2
20260507230122 20 223 4.8 12.9 0.00 0.00 0.00 33 1014.2
20260507225122 20 234 4.8 9.7 0.00 0.00 0.00 31 1014.4
20260507224122 20 254 3.2 9.7 0.00 0.00 0.00 30 1014.6
20260507223122 20 219 4.8 12.9 0.00 0.00 0.00 31 1014.8
20260507222143 18 238 3.2 9.7 0.00 0.00 0.00 33 1014.9
20260507221122 18 268 1.6 6.4 0.00 0.00 0.00 33 1015.1
20260507220122 18 260 3.2 11.3 0.00 0.00 0.00 31 1015.2
20260507215122 18 262 3.2 12.9 0.00 0.00 0.00 30 1015.4
20260507214122 18 231 3.2 6.4 0.00 0.00 0.00 30 1015.5